Rota, Spain

3:35 AM CET on February 14, 2016 (GMT +0100)
Rota Navy

Weather History for LERT - November, 2012

Change the Weather History Date:

Friday, November 23, 2012

  Actual Average Record
Temperature  
Mean Temperature 60 °F -  
Max Temperature 68 °F 58 °F 69 °F (2014)
Min Temperature 51 °F 47 °F 42 °F (1998)
Degree Days  
Heating Degree Days 6    
Growing Degree Days 10 (Base 50)    
Moisture  
Dew Point 53 °F    
Average Humidity 80    
Maximum Humidity 94    
Minimum Humidity 64    
Precipitation  
Precipitation 0.00 in - - ()
Sea Level Pressure  
Sea Level Pressure 30.10 in    
Wind  
Wind Speed 6 mph ()    
Max Wind Speed 15 mph    
Max Gust Speed -    
Averages and records for this station are not official NWS values.
T = Trace of Precipitation, MM = Missing Value Source: Averaged Metar Reports

Daily Weather History Graph

Daily Weather History Graph

Search for Another Location

Airport or City:

Trip Planner

Search our weather history database for the weather conditions in past years. The results will help you decide how hot, cold, wet, or windy it might be!

Date:

Astronomy

Nov. 23, 2012 Rise Set
Actual Time 8:11 AM CET 6:11 PM CET
Civil Twilight 7:43 AM CET 6:39 PM CET
Nautical Twilight 7:11 AM CET 7:11 PM CET
Astronomical Twilight 6:41 AM CET 7:42 PM CET
Moon 3:13 PM CET (11/23) 3:23 AM CET (11/23)
Length of Visible Light 10h 56m
Length of Day
10h 00m
Waxing Gibbous, 77% of the Moon is Illuminated
Nov 23
Waxing Gibbous
Nov 28
Full
Dec 6
Last Quarter
Dec 13
New
Dec 20
First Quarter

Hourly Weather History & Observations

Time (CET) Temp. Dew Point Humidity Pressure Visibility Wind Dir Wind Speed Gust Speed Precip Events Conditions
12:00 AM 55.4 °F 53.6 °F 94% 30.15 in - ENE 3.5 mph - N/A   Clear
1:00 AM 53.6 °F 51.8 °F 94% 30.15 in - Variable 1.2 mph - N/A   Clear
2:00 AM 53.6 °F 51.8 °F 94% 30.15 in - Variable 2.3 mph - N/A   Clear
3:00 AM 53.6 °F 51.8 °F 94% 30.12 in - Variable 2.3 mph - N/A   Clear
4:00 AM 53.6 °F 50.0 °F 88% 30.12 in - NE 5.8 mph - N/A   Clear
5:00 AM 51.8 °F 50.0 °F 94% 30.12 in - NE 3.5 mph - N/A   Clear
7:00 AM 51.8 °F 50.0 °F 94% 30.12 in - ENE 4.6 mph - N/A   Clear
8:00 AM 51.8 °F 50.0 °F 94% 30.12 in - ENE 3.5 mph - N/A   Clear
9:00 AM 51.8 °F 50.0 °F 94% 30.12 in - East 4.6 mph - N/A   Clear
10:00 AM 57.2 °F 53.6 °F 88% 30.12 in - Variable 2.3 mph - N/A   Clear
11:00 AM 62.6 °F 55.4 °F 77% 30.12 in - ESE 10.4 mph - N/A   Clear
12:00 PM 64.4 °F 55.4 °F 73% 30.12 in - SE 15.0 mph - N/A   Clear
1:00 PM 68.0 °F 55.4 °F 64% 30.09 in - ESE 15.0 mph - N/A   Clear
2:00 PM 68.0 °F 55.4 °F 64% 30.09 in - SE 10.4 mph - N/A   Clear
3:00 PM 68.0 °F 55.4 °F 64% 30.06 in - ESE 11.5 mph - N/A   Clear
4:00 PM 68.0 °F 55.4 °F 64% 30.06 in - SE 13.8 mph - N/A   Clear
5:00 PM 64.4 °F 53.6 °F 68% 30.06 in - SE 13.8 mph - N/A   Clear
6:00 PM 64.4 °F 53.6 °F 68% 30.06 in - ESE 11.5 mph - N/A   Clear
7:00 PM 62.6 °F 53.6 °F 72% 30.06 in - ESE 12.7 mph - N/A   Clear
8:00 PM 60.8 °F 53.6 °F 77% 30.06 in - ESE 12.7 mph - N/A   Clear
9:00 PM 60.8 °F 53.6 °F 77% 30.06 in - ESE 12.7 mph - N/A   Clear
10:00 PM 60.8 °F 53.6 °F 77% 30.06 in - ESE 13.8 mph - N/A   Clear
11:00 PM 60.8 °F 53.6 °F 77% 30.06 in - SE 12.7 mph - N/A   Clear